When you browse on this site, cookies collect data to enhance your experience and personalize the content and advertising you see.
Visit our Privacy Policy to learn more. By continuing to use the site, you agree to this use of cookies and data.
  • En España
  • Lista de países
  • Para 7 días
  • Temperatura del agua
  • El tiempo en el mapa
  • Informadores
  • user-avatar
    Iniciar sesión

    Tiempo cada hora Djelfa

    Hoy, 12 Diciembre, Jueves

    Tiempo Temperatura Precipitaciones Viento Presión Humedad
    00:00 +2°C° 0 mm 9 mps 664 mmHg 87%
    01:00 +3°C° 0 mm 10 mps 664 mmHg 87%
    02:00 +3°C° 0 mm 12 mps 665 mmHg 88%
    03:00 +3°C° 0 mm 13 mps 665 mmHg 88%
    04:00 +2°C° 0 mm 12 mps 664 mmHg 89%
    05:00 +1°C° 0 mm 11 mps 664 mmHg 91%
    06:00 +1°C° 0 mm 10 mps 664 mmHg 92%
    07:00 +1°C° 0 mm 10 mps 665 mmHg 84%
    08:00 +2°C° 0 mm 10 mps 665 mmHg 75%
    09:00 +2°C° 0 mm 10 mps 665 mmHg 67%
    10:00 +3°C° 0 mm 10 mps 665 mmHg 60%
    11:00 +5°C° 0 mm 10 mps 665 mmHg 53%
    12:00 +7°C° 0 mm 10 mps 665 mmHg 46%
    13:00 +6°C° 0 mm 10 mps 664 mmHg 51%
    14:00 +6°C° 0 mm 9 mps 664 mmHg 57%
    15:00 +6°C° 0 mm 9 mps 663 mmHg 63%
    16:00 +6°C° 0 mm 8 mps 663 mmHg 67%
    17:00 +5°C° 0 mm 7 mps 663 mmHg 71%
    18:00 +4°C° 0 mm 7 mps 663 mmHg 74%
    19:00 +2°C° 0 mm 9 mps 663 mmHg 75%
    20:00 +2°C° 0 mm 10 mps 663 mmHg 76%
    21:00 0°C° 0 mm 12 mps 663 mmHg 77%
    22:00 0°C° 0 mm 13 mps 663 mmHg 77%
    23:00 +1°C° 0 mm 14 mps 663 mmHg 77%

    Mañana, 13 Diciembre, Viernes

    Tiempo Temperatura Precipitaciones Viento Presión Humedad
    00:00 +1°C° 0 mm 14 mps 663 mmHg 77%
    01:00 +1°C° 0 mm 15 mps 662 mmHg 80%
    02:00 +1°C° 0 mm 15 mps 662 mmHg 82%
    03:00 +1°C° 0 mm 15 mps 661 mmHg 85%
    04:00 +1°C° 0 mm 16 mps 661 mmHg 87%
    05:00 +2°C° 0 mm 16 mps 661 mmHg 89%
    06:00 +2°C° 0 mm 16 mps 661 mmHg 91%
    07:00 +2°C° 0 mm 16 mps 661 mmHg 89%
    08:00 +4°C° 0 mm 16 mps 662 mmHg 87%
    09:00 +5°C° 0 mm 16 mps 662 mmHg 86%
    10:00 +5°C° 0 mm 16 mps 662 mmHg 84%
    11:00 +6°C° 0 mm 16 mps 662 mmHg 83%
    12:00 +6°C° 0 mm 16 mps 662 mmHg 82%
    13:00 +6°C° 0 mm 16 mps 662 mmHg 81%
    14:00 +6°C° 0 mm 16 mps 661 mmHg 80%
    15:00 +6°C° 0 mm 16 mps 661 mmHg 80%
    16:00 +6°C° 0 mm 15 mps 662 mmHg 81%
    17:00 +6°C° 0 mm 15 mps 662 mmHg 83%
    18:00 +6°C° 0 mm 15 mps 662 mmHg 84%
    19:00 +5°C° 0 mm 14 mps 663 mmHg 87%
    20:00 +5°C° 0 mm 14 mps 663 mmHg 89%
    21:00 +4°C° 0 mm 14 mps 663 mmHg 91%
    22:00 +4°C° 0 mm 13 mps 663 mmHg 91%
    23:00 +4°C° 0 mm 13 mps 663 mmHg 90%

    Pasado mañana, 14 Diciembre, Sábado

    Tiempo Temperatura Precipitaciones Viento Presión Humedad
    00:00 +4°C° 0 mm 13 mps 663 mmHg 90%
    01:00 +4°C° 0 mm 12 mps 663 mmHg 91%
    02:00 +4°C° 0 mm 11 mps 663 mmHg 93%
    03:00 +3°C° 0 mm 10 mps 663 mmHg 95%
    04:00 +3°C° 0 mm 10 mps 664 mmHg 93%
    05:00 +5°C° 0 mm 9 mps 664 mmHg 91%
    06:00 +5°C° 0 mm 9 mps 664 mmHg 90%
    07:00 +5°C° 0 mm 9 mps 665 mmHg 87%
    08:00 +6°C° 0 mm 9 mps 665 mmHg 83%
    09:00 +6°C° 0 mm 9 mps 666 mmHg 80%
    10:00 +9°C° 0 mm 8 mps 666 mmHg 72%
    11:00 +10°C° 0 mm 7 mps 666 mmHg 63%
    12:00 +13°C° 0 mm 6 mps 666 mmHg 55%
    13:00 +13°C° 0 mm 5 mps 666 mmHg 53%
    14:00 +13°C° 0 mm 4 mps 666 mmHg 51%
    15:00 +14°C° 0 mm 3 mps 666 mmHg 49%
    16:00 +12°C° 0 mm 3 mps 666 mmHg 55%
    17:00 +12°C° 0 mm 2 mps 666 mmHg 61%
    18:00 +10°C° 0 mm 2 mps 665 mmHg 66%
    19:00 +10°C° 0 mm 2 mps 666 mmHg 65%
    20:00 +10°C° 0 mm 2 mps 666 mmHg 64%
    21:00 +10°C° 0 mm 2 mps 666 mmHg 62%
    22:00 +9°C° 0 mm 2 mps 666 mmHg 62%
    23:00 +9°C° 0 mm 2 mps 666 mmHg 62%

    15 Diciembre, Domingo

    Tiempo Temperatura Precipitaciones Viento Presión Humedad
    00:00 +9°C° 0 mm 3 mps 666 mmHg 61%
    01:00 +9°C° 0 mm 3 mps 666 mmHg 62%
    02:00 +8°C° 0 mm 3 mps 665 mmHg 62%
    03:00 +8°C° 0 mm 3 mps 665 mmHg 62%
    04:00 +8°C° 0 mm 2 mps 665 mmHg 60%
    05:00 +8°C° 0 mm 2 mps 665 mmHg 58%
    06:00 +8°C° 0 mm 2 mps 665 mmHg 56%
    07:00 +9°C° 0 mm 2 mps 665 mmHg 52%
    08:00 +12°C° 0 mm 2 mps 666 mmHg 48%
    09:00 +13°C° 0 mm 2 mps 667 mmHg 44%
    10:00 +14°C° 0 mm 3 mps 667 mmHg 40%
    11:00 +15°C° 0 mm 4 mps 667 mmHg 36%
    12:00 +17°C° 0 mm 4 mps 667 mmHg 33%
    13:00 +16°C° 0 mm 5 mps 666 mmHg 33%
    14:00 +16°C° 0 mm 5 mps 666 mmHg 34%
    15:00 +16°C° 0 mm 5 mps 666 mmHg 35%
    16:00 +14°C° 0 mm 5 mps 665 mmHg 39%
    17:00 +13°C° 0 mm 5 mps 665 mmHg 43%
    18:00 +10°C° 0 mm 5 mps 665 mmHg 46%
    19:00 +10°C° 0 mm 5 mps 665 mmHg 48%
    20:00 +10°C° 0 mm 6 mps 665 mmHg 49%
    21:00 +9°C° 0 mm 6 mps 665 mmHg 50%
    22:00 +9°C° 0 mm 6 mps 665 mmHg 53%
    23:00 +8°C° 0 mm 6 mps 665 mmHg 55%

    16 Diciembre, Lunes

    Tiempo Temperatura Precipitaciones Viento Presión Humedad
    00:00 +8°C° 0 mm 6 mps 664 mmHg 57%
    01:00 +7°C° 0 mm 6 mps 664 mmHg 59%
    02:00 +6°C° 0 mm 7 mps 664 mmHg 60%
    03:00 +6°C° 0 mm 7 mps 663 mmHg 62%
    04:00 +6°C° 0 mm 7 mps 663 mmHg 63%
    05:00 +5°C° 0 mm 7 mps 663 mmHg 65%
    06:00 +5°C° 0 mm 6 mps 663 mmHg 66%
    07:00 +6°C° 0 mm 7 mps 663 mmHg 64%
    08:00 +6°C° 0 mm 8 mps 663 mmHg 63%
    09:00 +7°C° 0 mm 9 mps 663 mmHg 61%
    10:00 +8°C° 0 mm 10 mps 663 mmHg 59%
    11:00 +9°C° 0 mm 10 mps 663 mmHg 57%
    12:00 +9°C° 0 mm 11 mps 662 mmHg 55%
    13:00 +11°C° 0 mm 11 mps 662 mmHg 54%
    14:00 +11°C° 0 mm 11 mps 661 mmHg 53%
    15:00 +11°C° 0 mm 11 mps 661 mmHg 52%
    16:00 +11°C° 0 mm 10 mps 660 mmHg 54%
    17:00 +9°C° 0 mm 10 mps 660 mmHg 56%
    18:00 +8°C° 0 mm 10 mps 660 mmHg 57%
    19:00 +8°C° 0 mm 10 mps 660 mmHg 59%
    20:00 +7°C° 0 mm 10 mps 659 mmHg 60%
    21:00 +7°C° 0 mm 11 mps 659 mmHg 61%
    22:00 +7°C° 0 mm 10 mps 659 mmHg 63%
    23:00 +6°C° 0 mm 9 mps 659 mmHg 65%

    17 Diciembre, Martes

    Tiempo Temperatura Precipitaciones Viento Presión Humedad
    00:00 +6°C° 0 mm 8 mps 658 mmHg 67%
    01:00 +5°C° 0 mm 7 mps 658 mmHg 68%
    02:00 +5°C° 0 mm 6 mps 657 mmHg 70%
    03:00 +5°C° 0 mm 5 mps 657 mmHg 72%
    04:00 +5°C° 0 mm 5 mps 657 mmHg 72%
    05:00 +5°C° 0 mm 5 mps 656 mmHg 72%
    06:00 +5°C° 0 mm 4 mps 656 mmHg 72%
    07:00 +6°C° 0 mm 5 mps 656 mmHg 68%
    08:00 +7°C° 0 mm 5 mps 656 mmHg 64%
    09:00 +8°C° 0 mm 6 mps 657 mmHg 60%
    10:00 +8°C° 0.1 mm 6 mps 656 mmHg 60%
    11:00 +8°C° 0.1 mm 7 mps 656 mmHg 59%
    12:00 +8°C° 0.1 mm 7 mps 655 mmHg 59%
    13:00 +6°C° 2.2 mm 7 mps 655 mmHg 69%
    14:00 +5°C° 2.2 mm 6 mps 654 mmHg 78%
    15:00 +3°C° 2.2 mm 5 mps 653 mmHg 88%
    16:00 +2°C° 2.9 mm 5 mps 653 mmHg 90%
    17:00 +2°C° 2.9 mm 6 mps 653 mmHg 91%
    18:00 0°C° 2.9 mm 7 mps 654 mmHg 93%
    19:00 0°C° 0.5 mm 7 mps 654 mmHg 92%
    20:00 0°C° 0.5 mm 7 mps 655 mmHg 92%
    21:00 +2°C° 0.5 mm 7 mps 655 mmHg 91%
    22:00 +1°C° 0.4 mm 9 mps 656 mmHg 90%
    23:00 +1°C° 0.4 mm 10 mps 656 mmHg 90%
    Mostrar más